Location: Foulognes
(49.1413°N, 0.8183°W)
Time: 15:03:16
(UTC+00:00)

ATLAS 5 CENTAUR R/B - Pass Details

Date: 21 October 2019
Orbit: 557 x 1102 km, 63.4° (Epoch: 11 November)

Event Time Altitude Azimuth Distance (km) Brightness Sun altitude
Rises 20:14:20 0° 301° (WNW) 3,016 6.2 -31.7°
Reaches altitude 10° 20:17:20 10° 322° (NW) 2,198 5.0 -32.1°
Enters shadow 20:20:33 17° 2° (N) 1,856 4.1 -32.6°
